Time,TemperatureF,DewpointF,PressureIn,WindDirection,WindDirectionDegrees,WindSpeedMPH,WindSpeedGustMPH,Humidity,HourlyPrecipIn,Conditions,Clouds,dailyrainin,SoftwareType,DateUTC
2013-10-25 00:00:00,52.0,43.0,-100.00,NNE,20,4.0,-999.0,71,0.00,,,0.00,,2013-10-25 05:00:00,
2013-10-25 00:42:00,52.0,43.0,-100.00,NNE,20,4.0,-999.0,71,0.00,,,0.00,,2013-10-25 05:42:00,
2013-10-25 00:51:00,52.0,43.0,-100.00,NNE,20,4.0,-999.0,71,0.00,,,0.00,,2013-10-25 05:51:00,
2013-10-25 01:00:00,51.0,44.0,-100.00,NNE,22,6.0,-999.0,77,0.00,,,0.00,,2013-10-25 06:00:00,
2013-10-25 01:41:00,51.0,44.0,-100.00,NNE,22,6.0,-999.0,77,0.00,,,0.00,,2013-10-25 06:41:00,
2013-10-25 01:51:00,51.0,44.0,-100.00,NNE,22,6.0,-999.0,77,0.00,,,0.00,,2013-10-25 06:51:00,
2013-10-25 02:00:00,49.0,44.0,-100.00,NNE,19,4.0,-999.0,81,0.00,,,0.00,,2013-10-25 07:00:00,
2013-10-25 02:41:00,49.0,44.0,-100.00,NNE,19,4.0,-999.0,81,0.00,,,0.00,,2013-10-25 07:41:00,
2013-10-25 02:51:00,49.0,44.0,-100.00,NNE,19,4.0,-999.0,81,0.00,,,0.00,,2013-10-25 07:51:00,
2013-10-25 03:00:00,48.0,44.0,-100.00,NNE,27,4.0,-999.0,86,0.00,,,0.00,,2013-10-25 08:00:00,
2013-10-25 03:41:00,48.0,44.0,-100.00,NNE,27,4.0,-999.0,86,0.00,,,0.00,,2013-10-25 08:41:00,
2013-10-25 03:51:00,48.0,44.0,-100.00,NNE,27,4.0,-999.0,86,0.00,,,0.00,,2013-10-25 08:51:00,
2013-10-25 04:00:00,47.0,44.0,-100.00,NE,44,3.0,-999.0,90,0.00,,,0.00,,2013-10-25 09:00:00,
2013-10-25 04:42:00,47.0,44.0,-100.00,NE,44,3.0,-999.0,90,0.00,,,0.00,,2013-10-25 09:42:00,
2013-10-25 04:52:00,47.0,44.0,-100.00,NE,44,3.0,-999.0,90,0.00,,,0.00,,2013-10-25 09:52:00,
2013-10-25 05:00:00,45.0,43.0,-100.00,ENE,70,1.0,-999.0,93,0.00,,,0.00,,2013-10-25 10:00:00,
2013-10-25 05:41:00,45.0,43.0,-100.00,ENE,70,1.0,-999.0,93,0.00,,,0.00,,2013-10-25 10:41:00,
2013-10-25 05:52:00,45.0,43.0,-100.00,ENE,70,1.0,-999.0,93,0.00,,,0.00,,2013-10-25 10:52:00,
2013-10-25 06:00:00,44.0,42.0,-100.00,East,101,1.0,-999.0,93,0.00,,,0.00,,2013-10-25 11:00:00,
2013-10-25 06:41:00,44.0,42.0,-100.00,East,101,1.0,-999.0,93,0.00,,,0.00,,2013-10-25 11:41:00,
2013-10-25 06:51:00,44.0,42.0,-100.00,East,101,1.0,-999.0,93,0.00,,,0.00,,2013-10-25 11:51:00,
2013-10-25 07:00:00,43.0,40.0,-100.00,East,101,2.0,-999.0,90,0.00,,,0.00,,2013-10-25 12:00:00,
2013-10-25 07:41:00,43.0,40.0,-100.00,East,101,2.0,-999.0,90,0.00,,,0.00,,2013-10-25 12:41:00,
2013-10-25 07:51:00,43.0,40.0,-100.00,East,101,2.0,-999.0,90,0.00,,,0.00,,2013-10-25 12:51:00,
2013-10-25 08:00:00,43.0,38.0,-100.00,ESE,114,5.0,-999.0,83,0.00,,,0.00,,2013-10-25 13:00:00,
2013-10-25 08:42:00,43.0,38.0,-100.00,ESE,114,5.0,-999.0,83,0.00,,,0.00,,2013-10-25 13:42:00,
2013-10-25 08:52:00,43.0,38.0,-100.00,ESE,114,5.0,-999.0,83,0.00,,,0.00,,2013-10-25 13:52:00,
2013-10-25 09:00:00,46.0,35.0,-100.00,ESE,108,8.0,-999.0,67,0.00,,,-99.99,,2013-10-25 14:00:00,
2013-10-25 09:42:00,46.0,35.0,-100.00,ESE,108,8.0,-999.0,67,0.00,,,-99.99,,2013-10-25 14:42:00,
2013-10-25 09:52:00,46.0,35.0,-100.00,ESE,108,8.0,-999.0,67,0.00,,,-99.99,,2013-10-25 14:52:00,
2013-10-25 10:00:00,49.0,35.0,-100.00,ESE,115,9.0,-999.0,59,0.00,,,-99.99,,2013-10-25 15:00:00,
2013-10-25 10:43:00,49.0,35.0,-100.00,ESE,115,9.0,-999.0,59,0.00,,,-99.99,,2013-10-25 15:43:00,
2013-10-25 10:53:00,49.0,35.0,-100.00,ESE,115,9.0,-999.0,59,0.00,,,-99.99,,2013-10-25 15:53:00,
2013-10-25 11:00:00,52.0,35.0,-100.00,ESE,122,9.0,-999.0,53,0.00,,,-99.99,,2013-10-25 16:00:00,
2013-10-25 11:43:00,52.0,35.0,-100.00,ESE,122,9.0,-999.0,53,0.00,,,-99.99,,2013-10-25 16:43:00,
2013-10-25 11:53:00,52.0,35.0,-100.00,ESE,122,9.0,-999.0,53,0.00,,,-99.99,,2013-10-25 16:53:00,
2013-10-25 12:00:00,53.0,35.0,-100.00,ESE,102,9.0,-999.0,51,0.00,,,0.00,,2013-10-25 17:00:00,
2013-10-25 12:43:00,53.0,35.0,-100.00,ESE,102,9.0,-999.0,51,0.00,,,0.00,,2013-10-25 17:43:00,
2013-10-25 12:52:00,53.0,35.0,-100.00,ESE,102,9.0,-999.0,51,0.00,,,0.00,,2013-10-25 17:52:00,
2013-10-25 13:00:00,56.0,37.0,-100.00,ESE,112,7.0,-999.0,50,0.00,,,0.00,,2013-10-25 18:00:00,
2013-10-25 13:42:00,56.0,37.0,-100.00,ESE,112,7.0,-999.0,50,0.00,,,0.00,,2013-10-25 18:42:00,
2013-10-25 13:52:00,56.0,37.0,-100.00,ESE,112,7.0,-999.0,50,0.00,,,0.00,,2013-10-25 18:52:00,
2013-10-25 14:00:00,57.0,39.0,-100.00,ESE,120,7.0,-999.0,50,0.00,,,0.00,,2013-10-25 19:00:00,
2013-10-25 14:42:00,57.0,39.0,-100.00,ESE,120,7.0,-999.0,50,0.00,,,0.00,,2013-10-25 19:42:00,
2013-10-25 14:52:00,57.0,39.0,-100.00,ESE,120,7.0,-999.0,50,0.00,,,0.00,,2013-10-25 19:52:00,
2013-10-25 15:00:00,59.0,40.0,-100.00,ESE,104,5.0,-999.0,49,0.00,,,0.00,,2013-10-25 20:00:00,
2013-10-25 15:42:00,59.0,40.0,-100.00,ESE,104,5.0,-999.0,49,0.00,,,0.00,,2013-10-25 20:42:00,
2013-10-25 15:52:00,59.0,40.0,-100.00,ESE,104,5.0,-999.0,49,0.00,,,0.00,,2013-10-25 20:52:00,
2013-10-25 16:00:00,60.0,41.0,-100.00,SE,145,7.0,-999.0,50,0.00,,,0.00,,2013-10-25 21:00:00,
2013-10-25 16:43:00,60.0,41.0,-100.00,SE,145,7.0,-999.0,50,0.00,,,0.00,,2013-10-25 21:43:00,
2013-10-25 16:54:00,60.0,41.0,-100.00,SE,145,7.0,-999.0,50,0.00,,,0.00,,2013-10-25 21:54:00,
2013-10-25 18:00:00,58.0,42.0,-100.00,SE,131,5.0,-999.0,55,0.00,,,0.00,,2013-10-25 23:00:00,
2013-10-25 18:42:00,58.0,42.0,-100.00,SE,131,5.0,-999.0,55,0.00,,,0.00,,2013-10-25 23:42:00,
2013-10-25 18:52:00,58.0,42.0,-100.00,SE,131,5.0,-999.0,55,0.00,,,0.00,,2013-10-25 23:52:00,
2013-10-25 19:00:00,54.0,42.0,-100.00,ESE,104,4.0,-999.0,63,0.00,,,0.00,,2013-10-26 00:00:00,
2013-10-25 19:42:00,54.0,42.0,-100.00,ESE,104,4.0,-999.0,63,0.00,,,0.00,,2013-10-26 00:42:00,
2013-10-25 19:52:00,54.0,42.0,-100.00,ESE,104,4.0,-999.0,63,0.00,,,0.00,,2013-10-26 00:52:00,
2013-10-25 20:00:00,51.0,42.0,-100.00,ESE,113,1.0,-999.0,73,0.00,,,0.00,,2013-10-26 01:00:00,
2013-10-25 20:42:00,51.0,42.0,-100.00,ESE,113,1.0,-999.0,73,0.00,,,0.00,,2013-10-26 01:42:00,
2013-10-25 20:52:00,51.0,42.0,-100.00,ESE,113,1.0,-999.0,73,0.00,,,0.00,,2013-10-26 01:52:00,
2013-10-25 21:00:00,49.0,42.0,-100.00,SE,139,2.0,-999.0,79,0.00,,,0.00,,2013-10-26 02:00:00,
2013-10-25 21:43:00,49.0,42.0,-100.00,SE,139,2.0,-999.0,79,0.00,,,0.00,,2013-10-26 02:43:00,
2013-10-25 21:52:00,49.0,42.0,-100.00,SE,139,2.0,-999.0,79,0.00,,,0.00,,2013-10-26 02:52:00,
2013-10-25 22:00:00,46.0,43.0,-100.00,SSE,163,3.0,-999.0,87,0.00,,,0.00,,2013-10-26 03:00:00,
2013-10-25 22:45:00,46.0,43.0,-100.00,SSE,163,3.0,-999.0,87,0.00,,,0.00,,2013-10-26 03:45:00,
2013-10-25 22:54:00,46.0,43.0,-100.00,SSE,163,3.0,-999.0,87,0.00,,,0.00,,2013-10-26 03:54:00,
2013-10-25 23:00:00,46.0,43.0,-100.00,SSE,158,2.0,-999.0,88,0.00,,,0.00,,2013-10-26 04:00:00,
2013-10-25 23:44:00,46.0,43.0,-100.00,SSE,158,2.0,-999.0,88,0.00,,,0.00,,2013-10-26 04:44:00,
2013-10-25 23:54:00,46.0,43.0,-100.00,SSE,158,2.0,-999.0,88,0.00,,,0.00,,2013-10-26 04:54:00,